Location: Lucerne Valley
(34.4439°N, 116.9669°E)
Time: 12:13:45
(UTC-07:00)

Vanguard 3 - Visible Passes

Search period start: 22 October 2017 00:00
Search period end: 01 November 2017 00:00
Orbit: 510 x 3263 km, 33.3° (Epoch: 21 October)

Date Brightness Start Highest point End Pass type
(mag) Time Alt. Az. Time Alt. Az. Time Alt. Az.
22 Oct 10.1 11:00:20 37° ESE 11:00:20 37° ESE 11:08:09 10° E visible
22 Oct 9.1 13:04:56 39° SW 13:11:24 71° SSE 13:20:34 10° E visible
23 Oct 11.0 09:50:48 16° E 09:50:48 16° E 09:53:03 10° E visible
23 Oct 9.5 11:55:23 59° SSE 11:56:01 60° SSE 12:07:01 10° E visible
23 Oct 8.8 13:59:58 21° W 14:10:33 83° S 14:18:39 10° E visible
24 Oct 10.2 10:45:47 37° ESE 10:45:47 37° ESE 10:52:53 10° E visible
24 Oct 9.1 12:50:22 50° WSW 12:55:25 76° SSE 13:05:23 10° E visible
24 Oct 8.6 14:56:19 10° W 15:09:32 84° S 15:16:37 10° E visible
25 Oct 11.1 09:36:09 15° E 09:36:09 15° E 09:37:50 10° E visible
25 Oct 9.5 11:40:44 65° SE 11:40:44 65° SE 11:51:43 10° E visible
25 Oct 8.9 13:45:19 28° W 13:54:46 85° S 14:03:32 10° E visible
26 Oct 10.3 10:31:03 34° E 10:31:03 34° E 10:37:27 10° E visible
26 Oct 9.2 12:35:38 60° WSW 12:39:21 80° S 12:50:08 10° E visible
26 Oct 8.7 14:40:12 11° W 14:53:52 82° S 15:01:33 10° ESE visible
27 Oct 11.2 09:21:21 13° E 09:21:21 13° E 09:22:22 10° E visible
27 Oct 9.6 11:25:55 64° ESE 11:25:55 64° ESE 11:36:18 10° E visible
27 Oct 9.0 13:30:30 34° W 13:38:52 86° S 13:48:22 10° E visible
28 Oct 10.5 10:16:11 31° E 10:16:11 31° E 10:21:54 10° E visible
28 Oct 9.3 12:20:45 70° WSW 12:23:12 83° S 12:34:49 10° E visible
28 Oct 8.9 14:25:20 16° W 14:38:06 80° SSW 14:46:25 10° ESE visible
29 Oct 11.3 09:06:26 11° E 09:06:26 11° E 09:06:42 10° E visible
29 Oct 9.8 11:11:00 59° E 11:11:00 59° E 11:20:49 10° E visible
29 Oct 9.2 13:15:35 41° W 13:22:52 86° S 13:33:10 10° E visible
30 Oct 10.7 10:01:15 28° E 10:01:15 28° E 10:06:13 10° E visible
30 Oct 9.4 12:05:49 80° SW 12:06:56 85° S 12:19:26 10° E visible
30 Oct 9.0 14:10:23 21° W 14:22:13 77° SSW 14:31:14 10° ESE visible
31 Oct 10.0 10:56:03 53° E 10:56:03 53° E 11:05:13 10° E visible
31 Oct 9.3 13:00:37 49° W 13:06:47 85° S 13:17:52 10° E visible
31 Oct 9.1 15:06:49 10° W 15:20:53 56° SSW 15:28:47 10° SE visible
